Time,TemperatureF,DewpointF,PressureIn,WindDirection,WindDirectionDegrees,WindSpeedMPH,WindSpeedGustMPH,Humidity,HourlyPrecipIn,Conditions,Clouds,dailyrainin,SoftwareType,DateUTC
2013-08-05 00:02:00,62.0,-99.9,-100.00,ENE,78,1.0,4.0,-999,-99.99,,,-99.99,,2013-08-05 04:02:00,
2013-08-05 00:12:00,62.0,-99.9,-100.00,ENE,78,1.0,4.0,-999,-99.99,,,-99.99,,2013-08-05 04:12:00,
2013-08-05 00:22:00,61.0,-99.9,-100.00,East,79,1.0,2.0,-999,-99.99,,,-99.99,,2013-08-05 04:22:00,
2013-08-05 00:32:00,61.0,-99.9,-100.00,East,79,1.0,2.0,-999,-99.99,,,-99.99,,2013-08-05 04:32:00,
2013-08-05 00:52:00,62.0,-99.9,-100.00,ENE,78,1.0,4.0,-999,-99.99,,,-99.99,,2013-08-05 04:52:00,
2013-08-05 01:02:00,62.0,-99.9,-100.00,ENE,78,1.0,4.0,-999,-99.99,,,-99.99,,2013-08-05 05:02:00,
2013-08-05 01:12:00,61.0,-99.9,-100.00,East,94,2.0,3.0,-999,-99.99,,,-99.99,,2013-08-05 05:12:00,
2013-08-05 01:22:00,60.0,-99.9,-100.00,East,87,2.0,3.0,-999,-99.99,,,-99.99,,2013-08-05 05:22:00,
2013-08-05 01:32:00,60.0,-99.9,-100.00,East,87,2.0,3.0,-999,-99.99,,,-99.99,,2013-08-05 05:32:00,
2013-08-05 01:43:00,60.0,-99.9,-100.00,East,87,2.0,3.0,-999,-99.99,,,-99.99,,2013-08-05 05:43:00,
2013-08-05 01:53:00,61.0,-99.9,-100.00,East,94,2.0,3.0,-999,-99.99,,,-99.99,,2013-08-05 05:53:00,
2013-08-05 02:02:00,61.0,-99.9,-100.00,East,94,2.0,3.0,-999,-99.99,,,-99.99,,2013-08-05 06:02:00,
2013-08-05 02:12:00,60.0,-99.9,-100.00,East,90,2.0,3.0,-999,-99.99,,,-99.99,,2013-08-05 06:12:00,
2013-08-05 02:22:00,60.0,-99.9,-100.00,East,90,2.0,3.0,-999,-99.99,,,-99.99,,2013-08-05 06:22:00,
2013-08-05 02:32:00,60.0,-99.9,-100.00,East,90,2.0,3.0,-999,-99.99,,,-99.99,,2013-08-05 06:32:00,
2013-08-05 02:52:00,60.0,-99.9,-100.00,East,90,2.0,3.0,-999,-99.99,,,-99.99,,2013-08-05 06:52:00,
2013-08-05 03:02:00,60.0,-99.9,-100.00,East,90,2.0,3.0,-999,-99.99,,,-99.99,,2013-08-05 07:02:00,
2013-08-05 03:12:00,60.0,-99.9,-100.00,East,90,2.0,3.0,-999,-99.99,,,-99.99,,2013-08-05 07:12:00,
2013-08-05 03:22:00,59.0,-99.9,-100.00,East,93,2.0,4.0,-999,-99.99,,,-99.99,,2013-08-05 07:22:00,
2013-08-05 03:43:00,59.0,-99.9,-100.00,ENE,77,2.0,3.0,-999,-99.99,,,-99.99,,2013-08-05 07:43:00,
2013-08-05 03:53:00,59.0,-99.9,-100.00,ENE,77,2.0,3.0,-999,-99.99,,,-99.99,,2013-08-05 07:53:00,
2013-08-05 04:12:00,58.0,-99.9,-100.00,East,90,2.0,4.0,-999,-99.99,,,-99.99,,2013-08-05 08:12:00,
2013-08-05 04:22:00,57.0,-99.9,-100.00,East,95,2.0,3.0,-999,-99.99,,,-99.99,,2013-08-05 08:22:00,
2013-08-05 04:34:00,57.0,-99.9,-100.00,East,95,2.0,3.0,-999,-99.99,,,-99.99,,2013-08-05 08:34:00,
2013-08-05 04:53:00,58.0,-99.9,-100.00,East,90,2.0,4.0,-999,-99.99,,,-99.99,,2013-08-05 08:53:00,
2013-08-05 05:20:00,57.0,-99.9,-100.00,East,89,1.0,4.0,-999,-99.99,,,-99.99,,2013-08-05 09:20:00,
2013-08-05 05:53:00,57.0,-99.9,-100.00,East,89,1.0,4.0,-999,-99.99,,,-99.99,,2013-08-05 09:53:00,
2013-08-05 06:19:00,57.0,-99.9,-100.00,East,86,1.0,3.0,-999,-99.99,,,-99.99,,2013-08-05 10:19:00,
2013-08-05 06:28:00,57.0,-99.9,-100.00,East,81,1.0,2.0,-999,-99.99,,,-99.99,,2013-08-05 10:28:00,
2013-08-05 06:50:00,57.0,-99.9,-100.00,East,86,1.0,3.0,-999,-99.99,,,-99.99,,2013-08-05 10:50:00,
2013-08-05 07:14:00,56.0,-99.9,-100.00,East,84,1.0,4.0,-999,-99.99,,,-99.99,,2013-08-05 11:14:00,
2013-08-05 07:31:00,56.0,-99.9,-100.00,East,90,0.0,2.0,-999,-99.99,,,-99.99,,2013-08-05 11:31:00,
2013-08-05 07:38:00,56.0,-99.9,-100.00,East,90,0.0,2.0,-999,-99.99,,,-99.99,,2013-08-05 11:38:00,
2013-08-05 07:55:00,56.0,-99.9,-100.00,East,84,1.0,4.0,-999,-99.99,,,-99.99,,2013-08-05 11:55:00,
2013-08-05 08:11:00,57.0,-99.9,-100.00,ESE,114,1.0,5.0,-999,-99.99,,,-99.99,,2013-08-05 12:11:00,
2013-08-05 08:17:00,57.0,-99.9,-100.00,ESE,114,1.0,5.0,-999,-99.99,,,-99.99,,2013-08-05 12:17:00,
2013-08-05 08:28:00,59.0,-99.9,-100.00,SSE,157,1.0,3.0,-999,-99.99,,,-99.99,,2013-08-05 12:28:00,
2013-08-05 08:33:00,57.0,-99.9,-100.00,ESE,114,1.0,5.0,-999,-99.99,,,-99.99,,2013-08-05 12:33:00,
2013-08-05 09:02:00,57.0,-99.9,-100.00,ESE,114,1.0,5.0,-999,-99.99,,,-99.99,,2013-08-05 13:02:00,
2013-08-05 09:14:00,59.0,-99.9,-100.00,East,83,1.0,6.0,-999,-99.99,,,-99.99,,2013-08-05 13:14:00,
2013-08-05 09:30:00,60.0,-99.9,-100.00,SSE,152,2.0,6.0,-999,-99.99,,,-99.99,,2013-08-05 13:30:00,
2013-08-05 09:49:00,59.0,-99.9,-100.00,East,83,1.0,6.0,-999,-99.99,,,-99.99,,2013-08-05 13:49:00,
2013-08-05 09:54:00,59.0,-99.9,-100.00,East,83,1.0,6.0,-999,-99.99,,,-99.99,,2013-08-05 13:54:00,
2013-08-05 10:07:00,62.0,-99.9,-100.00,SSE,147,2.0,8.0,-999,-99.99,,,-99.99,,2013-08-05 14:07:00,
2013-08-05 10:17:00,62.0,-99.9,-100.00,SSE,147,2.0,8.0,-999,-99.99,,,-99.99,,2013-08-05 14:17:00,
2013-08-05 10:30:00,65.0,-99.9,-100.00,South,172,2.0,5.0,-999,-99.99,,,-99.99,,2013-08-05 14:30:00,
2013-08-05 10:43:00,65.0,-99.9,-100.00,South,172,2.0,5.0,-999,-99.99,,,-99.99,,2013-08-05 14:43:00,
2013-08-05 11:07:00,62.0,-99.9,-100.00,SSE,147,2.0,8.0,-999,-99.99,,,-99.99,,2013-08-05 15:07:00,
2013-08-05 11:25:00,65.0,-99.9,-100.00,South,177,1.0,5.0,-999,-99.99,,,-99.99,,2013-08-05 15:25:00,
2013-08-05 12:01:00,65.0,-99.9,-100.00,South,177,1.0,5.0,-999,-99.99,,,-99.99,,2013-08-05 16:01:00,
2013-08-05 12:13:00,66.0,-99.9,-100.00,SE,137,1.0,5.0,-999,-99.99,,,-99.99,,2013-08-05 16:13:00,
2013-08-05 12:45:00,66.0,-99.9,-100.00,SE,137,1.0,5.0,-999,-99.99,,,-99.99,,2013-08-05 16:45:00,
2013-08-05 13:10:00,66.0,-99.9,-100.00,SE,137,1.0,5.0,-999,-99.99,,,-99.99,,2013-08-05 17:10:00,
2013-08-05 13:17:00,69.0,-99.9,-100.00,South,171,3.0,6.0,-999,-99.99,,,-99.99,,2013-08-05 17:17:00,
2013-08-05 13:40:00,70.0,-99.9,-100.00,South,176,5.0,9.0,-999,-99.99,,,-99.99,,2013-08-05 17:40:00,
2013-08-05 14:02:00,69.0,-99.9,-100.00,South,171,3.0,6.0,-999,-99.99,,,-99.99,,2013-08-05 18:02:00,
2013-08-05 14:14:00,70.0,-99.9,-100.00,SSE,160,3.0,11.0,-999,-99.99,,,-99.99,,2013-08-05 18:14:00,
2013-08-05 14:45:00,70.0,-99.9,-100.00,SSE,160,3.0,11.0,-999,-99.99,,,-99.99,,2013-08-05 18:45:00,
2013-08-05 14:54:00,70.0,-99.9,-100.00,SSE,160,3.0,11.0,-999,-99.99,,,-99.99,,2013-08-05 18:54:00,
2013-08-05 15:05:00,70.0,-99.9,-100.00,SSE,160,3.0,11.0,-999,-99.99,,,-99.99,,2013-08-05 19:05:00,
2013-08-05 15:39:00,72.0,-99.9,-100.00,SSW,195,6.0,9.0,-999,-99.99,,,-99.99,,2013-08-05 19:39:00,
2013-08-05 15:59:00,72.0,-99.9,-100.00,South,173,6.0,16.0,-999,-99.99,,,-99.99,,2013-08-05 19:59:00,
2013-08-05 16:09:00,72.0,-99.9,-100.00,South,173,6.0,16.0,-999,-99.99,,,-99.99,,2013-08-05 20:09:00,
2013-08-05 16:15:00,72.0,-99.9,-100.00,South,173,6.0,16.0,-999,-99.99,,,-99.99,,2013-08-05 20:15:00,
2013-08-05 16:48:00,71.0,-99.9,-100.00,South,187,6.0,7.0,-999,-99.99,,,-99.99,,2013-08-05 20:48:00,
2013-08-05 17:04:00,71.0,-99.9,-100.00,South,186,7.0,11.0,-999,-99.99,,,-99.99,,2013-08-05 21:04:00,
2013-08-05 17:12:00,70.0,-99.9,-100.00,SSW,193,5.0,9.0,-999,-99.99,,,-99.99,,2013-08-05 21:12:00,
2013-08-05 17:20:00,70.0,-99.9,-100.00,SSW,193,5.0,9.0,-999,-99.99,,,-99.99,,2013-08-05 21:20:00,
2013-08-05 17:34:00,70.0,-99.9,-100.00,SSW,211,7.0,8.0,-999,-99.99,,,-99.99,,2013-08-05 21:34:00,
2013-08-05 17:55:00,70.0,-99.9,-100.00,SSW,193,5.0,9.0,-999,-99.99,,,-99.99,,2013-08-05 21:55:00,
2013-08-05 18:06:00,71.0,-99.9,-100.00,South,172,5.0,8.0,-999,-99.99,,,-99.99,,2013-08-05 22:06:00,
2013-08-05 18:17:00,71.0,-99.9,-100.00,South,172,5.0,8.0,-999,-99.99,,,-99.99,,2013-08-05 22:17:00,
2013-08-05 18:28:00,71.0,-99.9,-100.00,South,172,5.0,8.0,-999,-99.99,,,-99.99,,2013-08-05 22:28:00,
2013-08-05 18:38:00,71.0,-99.9,-100.00,South,172,5.0,8.0,-999,-99.99,,,-99.99,,2013-08-05 22:38:00,
2013-08-05 18:54:00,71.0,-99.9,-100.00,South,172,5.0,8.0,-999,-99.99,,,-99.99,,2013-08-05 22:54:00,
2013-08-05 19:09:00,71.0,-99.9,-100.00,South,172,5.0,8.0,-999,-99.99,,,-99.99,,2013-08-05 23:09:00,
2013-08-05 19:18:00,71.0,-99.9,-100.00,South,172,5.0,8.0,-999,-99.99,,,-99.99,,2013-08-05 23:18:00,
2013-08-05 19:29:00,71.0,-99.9,-100.00,South,172,2.0,7.0,-999,-99.99,,,-99.99,,2013-08-05 23:29:00,
2013-08-05 19:46:00,71.0,-99.9,-100.00,South,175,3.0,8.0,-999,-99.99,,,-99.99,,2013-08-05 23:46:00,
2013-08-05 20:03:00,71.0,-99.9,-100.00,South,175,3.0,8.0,-999,-99.99,,,-99.99,,2013-08-06 00:03:00,
2013-08-05 20:15:00,71.0,-99.9,-100.00,South,175,3.0,8.0,-999,-99.99,,,-99.99,,2013-08-06 00:15:00,
2013-08-05 20:24:00,70.0,-99.9,-100.00,SSW,200,11.0,13.0,-999,-99.99,,,-99.99,,2013-08-06 00:24:00,
2013-08-05 20:37:00,70.0,-99.9,-100.00,SSW,200,11.0,13.0,-999,-99.99,,,-99.99,,2013-08-06 00:37:00,
2013-08-05 20:48:00,72.0,-99.9,-100.00,South,184,5.0,10.0,-999,-99.99,,,-99.99,,2013-08-06 00:48:00,
2013-08-05 20:57:00,72.0,-99.9,-100.00,South,184,5.0,10.0,-999,-99.99,,,-99.99,,2013-08-06 00:57:00,
2013-08-05 21:13:00,72.0,-99.9,-100.00,South,184,5.0,10.0,-999,-99.99,,,-99.99,,2013-08-06 01:13:00,
2013-08-05 21:28:00,69.0,-99.9,-100.00,SSE,167,3.0,7.0,-999,-99.99,,,-99.99,,2013-08-06 01:28:00,
2013-08-05 21:44:00,69.0,-99.9,-100.00,SSE,167,3.0,7.0,-999,-99.99,,,-99.99,,2013-08-06 01:44:00,
2013-08-05 21:54:00,69.0,-99.9,-100.00,South,174,5.0,13.0,-999,-99.99,,,-99.99,,2013-08-06 01:54:00,
2013-08-05 22:12:00,69.0,-99.9,-100.00,South,174,5.0,13.0,-999,-99.99,,,-99.99,,2013-08-06 02:12:00,
2013-08-05 22:33:00,69.0,-99.9,-100.00,SSE,168,2.0,7.0,-999,-99.99,,,-99.99,,2013-08-06 02:33:00,
2013-08-05 22:51:00,69.0,-99.9,-100.00,SSE,157,2.0,7.0,-999,-99.99,,,-99.99,,2013-08-06 02:51:00,
2013-08-05 23:02:00,69.0,-99.9,-100.00,SSE,157,2.0,7.0,-999,-99.99,,,-99.99,,2013-08-06 03:02:00,
2013-08-05 23:35:00,69.0,-99.9,-100.00,South,172,2.0,6.0,-999,-99.99,,,-99.99,,2013-08-06 03:35:00,